When you browse on this site, cookies collect data to enhance your experience and personalize the content and advertising you see.
Visit our Privacy Policy to learn more. By continuing to use the site, you agree to this use of cookies and data.
  • In Hungary
  • List of Countries
  • For 7 days
  • Water Temperature
  • Weather Map
  • News
  • Weather Widgets
  • user-avatar
    Login

    Hourly Weather Naran

    Today, 7 December, Saturday

    Time Temperature Precipitation Wind Pressure Humidity
    00:00 -17°C° 0 mm 3 mps 464 mmHg 34%
    01:00 -17°C° 0 mm 3 mps 464 mmHg 32%
    02:00 -17°C° 0 mm 3 mps 464 mmHg 29%
    03:00 -17°C° 0 mm 3 mps 464 mmHg 28%
    04:00 -17°C° 0 mm 3 mps 464 mmHg 28%
    05:00 -18°C° 0 mm 4 mps 464 mmHg 27%
    06:00 -16°C° 0 mm 3 mps 465 mmHg 28%
    07:00 -16°C° 0 mm 3 mps 465 mmHg 30%
    08:00 -15°C° 0 mm 3 mps 466 mmHg 31%
    09:00 -13°C° 0 mm 3 mps 467 mmHg 38%
    10:00 -9°C° 0 mm 2 mps 469 mmHg 45%
    11:00 -7°C° 0 mm 2 mps 470 mmHg 53%
    12:00 -4°C° 0 mm 1 mps 470 mmHg 55%
    13:00 -4°C° 0 mm 1 mps 470 mmHg 57%
    14:00 -4°C° 0 mm 1 mps 470 mmHg 59%
    15:00 -8°C° 0 mm 1 mps 468 mmHg 55%
    16:00 -12°C° 0 mm 2 mps 466 mmHg 51%
    17:00 -16°C° 0 mm 3 mps 464 mmHg 47%
    18:00 -16°C° 0 mm 3 mps 464 mmHg 43%
    19:00 -16°C° 0 mm 3 mps 464 mmHg 39%
    20:00 -17°C° 0 mm 4 mps 464 mmHg 36%
    21:00 -17°C° 0 mm 4 mps 464 mmHg 34%
    22:00 -17°C° 0 mm 4 mps 464 mmHg 32%
    23:00 -17°C° 0 mm 4 mps 465 mmHg 30%

    Tomorrow, 8 December, Sunday

    Time Temperature Precipitation Wind Pressure Humidity
    00:00 -18°C° 0 mm 4 mps 464 mmHg 30%
    01:00 -18°C° 0 mm 4 mps 464 mmHg 29%
    02:00 -18°C° 0 mm 4 mps 464 mmHg 28%
    03:00 -18°C° 0 mm 4 mps 464 mmHg 27%
    04:00 -18°C° 0 mm 4 mps 464 mmHg 26%
    05:00 -18°C° 0 mm 4 mps 464 mmHg 25%
    06:00 -17°C° 0 mm 4 mps 464 mmHg 26%
    07:00 -17°C° 0 mm 4 mps 465 mmHg 27%
    08:00 -16°C° 0 mm 4 mps 465 mmHg 28%
    09:00 -13°C° 0 mm 3 mps 467 mmHg 37%
    10:00 -10°C° 0 mm 3 mps 468 mmHg 46%
    11:00 -7°C° 0 mm 2 mps 470 mmHg 54%
    12:00 -7°C° 0 mm 2 mps 470 mmHg 55%
    13:00 -4°C° 0 mm 1 mps 469 mmHg 56%
    14:00 -4°C° 0 mm 1 mps 469 mmHg 58%
    15:00 -9°C° 0 mm 2 mps 467 mmHg 51%
    16:00 -13°C° 0 mm 3 mps 465 mmHg 45%
    17:00 -16°C° 0 mm 3 mps 463 mmHg 38%
    18:00 -16°C° 0 mm 3 mps 463 mmHg 34%
    19:00 -16°C° 0 mm 3 mps 464 mmHg 30%
    20:00 -16°C° 0 mm 3 mps 464 mmHg 25%
    21:00 -16°C° 0 mm 3 mps 464 mmHg 24%
    22:00 -16°C° 0 mm 3 mps 464 mmHg 22%
    23:00 -15°C° 0 mm 2 mps 463 mmHg 20%

    Day after tomorrow, 9 December, Monday

    Time Temperature Precipitation Wind Pressure Humidity
    00:00 -15°C° 0 mm 2 mps 464 mmHg 20%
    01:00 -15°C° 0 mm 2 mps 464 mmHg 20%
    02:00 -14°C° 0 mm 2 mps 464 mmHg 20%
    03:00 -14°C° 0 mm 2 mps 464 mmHg 21%
    04:00 -14°C° 0 mm 2 mps 464 mmHg 21%
    05:00 -14°C° 0 mm 2 mps 464 mmHg 22%
    06:00 -13°C° 0 mm 2 mps 464 mmHg 23%
    07:00 -13°C° 0 mm 2 mps 465 mmHg 25%
    08:00 -13°C° 0 mm 2 mps 465 mmHg 26%
    09:00 -10°C° 0 mm 2 mps 467 mmHg 32%
    10:00 -7°C° 0 mm 1 mps 468 mmHg 38%
    11:00 -4°C° 0 mm 1 mps 470 mmHg 43%
    12:00 -4°C° 0 mm 1 mps 469 mmHg 46%
    13:00 -3°C° 0 mm 1 mps 469 mmHg 49%
    14:00 -3°C° 0 mm 1 mps 469 mmHg 52%
    15:00 -6°C° 0 mm 1 mps 467 mmHg 54%
    16:00 -8°C° 0 mm 1 mps 466 mmHg 56%
    17:00 -10°C° 0 mm 1 mps 464 mmHg 58%
    18:00 -10°C° 0 mm 1 mps 464 mmHg 55%
    19:00 -12°C° 0 mm 2 mps 465 mmHg 52%
    20:00 -12°C° 0 mm 2 mps 465 mmHg 48%
    21:00 -12°C° 0 mm 2 mps 465 mmHg 46%
    22:00 -13°C° 0 mm 2 mps 464 mmHg 44%
    23:00 -13°C° 0 mm 2 mps 464 mmHg 43%

    10 December, Tuesday

    Time Temperature Precipitation Wind Pressure Humidity
    00:00 -14°C° 0 mm 2 mps 463 mmHg 42%
    01:00 -15°C° 0 mm 3 mps 463 mmHg 41%
    02:00 -15°C° 0 mm 3 mps 463 mmHg 41%
    03:00 -15°C° 0 mm 3 mps 463 mmHg 41%
    04:00 -15°C° 0 mm 3 mps 463 mmHg 41%
    05:00 -14°C° 0 mm 3 mps 463 mmHg 42%
    06:00 -14°C° 0 mm 3 mps 464 mmHg 45%
    07:00 -12°C° 0 mm 2 mps 464 mmHg 48%
    08:00 -12°C° 0 mm 2 mps 465 mmHg 51%
    09:00 -9°C° 0 mm 2 mps 466 mmHg 52%
    10:00 -6°C° 0 mm 1 mps 467 mmHg 52%
    11:00 -3°C° 0 mm 1 mps 468 mmHg 53%
    12:00 -3°C° 0 mm 1 mps 468 mmHg 55%
    13:00 -3°C° 0 mm 1 mps 468 mmHg 57%
    14:00 -3°C° 0 mm 1 mps 467 mmHg 59%
    15:00 -6°C° 0 mm 1 mps 466 mmHg 63%
    16:00 -8°C° 0 mm 1 mps 464 mmHg 66%
    17:00 -10°C° 0 mm 1 mps 463 mmHg 70%
    18:00 -10°C° 0 mm 1 mps 462 mmHg 68%
    19:00 -10°C° 0 mm 1 mps 462 mmHg 66%
    20:00 -13°C° 0 mm 2 mps 462 mmHg 63%
    21:00 -13°C° 0.1 mm 2 mps 462 mmHg 70%
    22:00 -12°C° 0.1 mm 2 mps 463 mmHg 77%
    23:00 -12°C° 0.1 mm 2 mps 463 mmHg 84%

    11 December, Wednesday

    Time Temperature Precipitation Wind Pressure Humidity
    00:00 -12°C° 0.1 mm 2 mps 463 mmHg 83%
    01:00 -12°C° 0.1 mm 2 mps 463 mmHg 82%
    02:00 -12°C° 0.1 mm 2 mps 463 mmHg 81%
    03:00 -13°C° 0 mm 2 mps 462 mmHg 79%
    04:00 -13°C° 0 mm 2 mps 462 mmHg 76%
    05:00 -14°C° 0 mm 2 mps 461 mmHg 73%
    06:00 -14°C° 0 mm 2 mps 462 mmHg 71%
    07:00 -13°C° 0 mm 2 mps 462 mmHg 68%
    08:00 -13°C° 0 mm 2 mps 462 mmHg 65%
    09:00 -10°C° 0 mm 2 mps 464 mmHg 64%
    10:00 -8°C° 0 mm 1 mps 465 mmHg 62%
    11:00 -6°C° 0 mm 1 mps 466 mmHg 60%
    12:00 -6°C° 0 mm 1 mps 466 mmHg 61%
    13:00 -4°C° 0 mm 1 mps 465 mmHg 62%
    14:00 -4°C° 0 mm 1 mps 465 mmHg 63%
    15:00 -6°C° 0.1 mm 1 mps 464 mmHg 71%
    16:00 -7°C° 0.1 mm 1 mps 463 mmHg 80%
    17:00 -9°C° 0.1 mm 1 mps 462 mmHg 88%
    18:00 -9°C° 0.2 mm 1 mps 462 mmHg 89%
    19:00 -9°C° 0.2 mm 1 mps 462 mmHg 91%
    20:00 -10°C° 0.2 mm 1 mps 462 mmHg 92%
    21:00 -10°C° 0.5 mm 1 mps 462 mmHg 93%
    22:00 -10°C° 0.5 mm 1 mps 462 mmHg 94%
    23:00 -12°C° 0.5 mm 2 mps 462 mmHg 94%

    12 December, Thursday

    Time Temperature Precipitation Wind Pressure Humidity
    00:00 -12°C° 0.9 mm 2 mps 462 mmHg 95%
    01:00 -12°C° 0.9 mm 2 mps 462 mmHg 95%
    02:00 -10°C° 0.9 mm 2 mps 461 mmHg 96%
    03:00 -10°C° 2.3 mm 2 mps 461 mmHg 96%
    04:00 -10°C° 2.3 mm 2 mps 461 mmHg 96%
    05:00 -10°C° 2.3 mm 2 mps 461 mmHg 97%
    06:00 -10°C° 1.6 mm 2 mps 461 mmHg 96%
    07:00 -10°C° 1.6 mm 2 mps 461 mmHg 96%
    08:00 -10°C° 1.6 mm 2 mps 461 mmHg 96%
    09:00 -10°C° 1.6 mm 2 mps 462 mmHg 96%
    10:00 -9°C° 1.6 mm 2 mps 462 mmHg 96%
    11:00 -9°C° 1.6 mm 2 mps 462 mmHg 96%
    12:00 -9°C° 1.1 mm 2 mps 462 mmHg 96%
    13:00 -10°C° 1.1 mm 3 mps 461 mmHg 96%
    14:00 -10°C° 1.1 mm 3 mps 461 mmHg 96%
    15:00 -10°C° 0.7 mm 2 mps 461 mmHg 96%
    16:00 -10°C° 0.7 mm 2 mps 460 mmHg 97%
    17:00 -10°C° 0.7 mm 1 mps 460 mmHg 97%
    18:00 -10°C° 0.9 mm 1 mps 460 mmHg 97%
    19:00 -10°C° 0.9 mm 1 mps 460 mmHg 97%
    20:00 -10°C° 0.9 mm 1 mps 460 mmHg 97%
    21:00 -10°C° 0.9 mm 1 mps 461 mmHg 97%
    22:00 -11°C° 0.9 mm 1 mps 461 mmHg 96%
    23:00 -11°C° 0.9 mm 1 mps 461 mmHg 96%
    Show more